Simultaneous Nadir Overpasses (SNOs) Predictions

Prediction of SNOs between AQUA and NPP Satellite Orbit:

Table of predicted SNOs for the next 14.0 days since TLE Epoch: 4/13/2012
Index Date (AQUA) Time (AQUA) Lat,Lon (AQUA) SZA (AQUA ) Date (NPP) Time (NPP) Lat,Lon (NPP) SZA (NPP ) Distance(km) Time Diff (sec)
1 04/13/2012 22:38:24 -77.03, -96.99 93.29 04/13/2012 22:37:20 -77.04, -96.91 93.26 2.36 64
2 04/13/2012 23:27:36 77.66, 73.17 85.93 04/13/2012 23:27:50 77.66, 73.15 85.92 0.48 14
3 04/16/2012 14:54:48 -77.30, 19.92 94.58 04/16/2012 14:54:08 -77.31, 20.00 94.57 2.17 40
4 04/16/2012 15:44:01 77.87,-170.03 84.70 04/16/2012 15:44:39 77.87,-170.04 84.67 0.26 38
5 04/19/2012 07:11:16 -77.36, 136.06 95.60 04/19/2012 07:11:01 -77.36, 136.00 95.58 1.71 15
6 04/19/2012 08:00:23 78.19, -52.64 83.34 04/19/2012 08:01:25 78.20, -52.55 83.27 2.26 62
7 04/21/2012 22:38:28 76.83, 82.27 84.14 04/21/2012 22:37:21 76.82, 82.22 84.21 1.48 67
8 04/21/2012 23:27:34 -77.81,-106.15 97.09 04/21/2012 23:27:43 -77.82,-106.05 97.12 2.74 9
9 04/24/2012 14:54:49 77.18,-160.52 82.82 04/24/2012 14:54:07 77.18,-160.55 82.86 0.92 42
10 04/24/2012 15:44:03 -77.80, 9.66 97.96 04/24/2012 15:44:38 -77.79, 9.56 97.97 2.58 35
11 04/27/2012 07:11:08 77.60, -42.93 81.43 04/27/2012 07:10:51 77.61, -42.85 81.43 1.94 17




NCC Satellite Simultaneous Nadir Overpasses (SNOs) Prediction Service
